EA7HQL-10 Weather Reports


Display with metric or nautical units.
time (UTC)temp
F
wind
direction
speed
MPH
gust
MPH
rain 1hr
in
rain 24hr
in
rain mn
in
humidity
%
barometer
mb
20260508111102 64 101 3.0 8.0 0.00 0.00 0.00 84 1011.1
20260508110602 64 138 3.0 6.0 0.00 0.00 0.00 85 1010.9
20260508110125 65 93 2.0 6.0 0.00 0.00 0.00 84 1010.9
20260508105722 65 92 5.0 6.0 0.00 0.00 0.00 84 1010.9
20260508105317 65 88 4.0 8.0 0.00 0.00 0.00 84 1010.9
20260508104909 65 133 2.0 6.0 0.00 0.00 0.00 84 1010.9
20260508104452 65 89 2.0 5.0 0.00 0.00 0.00 84 1010.7
20260508104032 65 124 2.0 8.0 0.00 0.00 0.00 83 1010.8
20260508103627 66 154 7.0 10.0 0.00 0.00 0.00 82 1011.0
20260508103149 65 99 0.0 2.0 0.00 0.00 0.00 84 1011.2
20260508102707 65 120 4.0 8.0 0.00 0.00 0.00 84 1011.2
20260508102208 66 123 4.0 6.0 0.00 0.00 0.00 84 1010.9
20260508101808 65 119 2.0 4.0 0.00 0.00 0.00 85 1011.1
20260508101338 65 100 2.0 6.0 0.00 0.00 0.00 86 1011.2
20260508100908 64 139 3.0 5.0 0.00 0.00 0.00 85 1011.4
20260508100503 63 112 1.0 5.0 0.00 0.00 0.00 86 1011.5
20260508100032 63 99 3.0 4.0 0.00 0.00 0.00 86 1011.3
20260508095558 63 109 2.0 4.0 0.00 0.00 0.00 86 1011.3
20260508095102 63 107 3.0 4.0 0.00 0.00 0.00 85 1011.1
20260508094613 64 75 2.0 4.0 0.00 0.00 0.00 84 1011.4
20260508094149 64 84 2.0 5.0 0.00 0.00 0.00 83 1011.3
20260508093732 64 126 2.0 6.0 0.00 0.00 0.00 82 1011.3
20260508093322 64 135 1.0 3.0 0.00 0.00 0.00 81 1011.2
20260508092852 64 99 2.0 2.0 0.00 0.00 0.00 81 1011.1
20260508092427 64 60 2.0 4.0 0.00 0.00 0.00 81 1011.0
20260508092007 65 77 4.0 5.0 0.00 0.00 0.00 80 1011.1
20260508091607 65 122 1.0 2.0 0.00 0.00 0.00 79 1011.1
20260508091117 66 91 2.0 3.0 0.00 0.00 0.00 79 1011.0
20260508090627 65 97 0.0 4.0 0.00 0.00 0.00 80 1011.0
20260508090219 65 45 2.0 3.0 0.00 0.00 0.00 80 1011.2
20260508085752 66 104 2.0 4.0 0.00 0.00 0.00 78 1011.1
20260508085348 65 90 2.0 6.0 0.00 0.00 0.00 81 1011.0
20260508084922 65 71 0.0 6.0 0.00 0.00 0.00 81 1010.8
20260508084442 64 95 4.0 6.0 0.00 0.00 0.00 81 1010.8
20260508084042 65 124 1.0 4.0 0.00 0.00 0.00 80 1011.0
20260508083637 65 134 4.0 5.0 0.00 0.00 0.00 79 1011.0
20260508083142 65 118 1.0 5.0 0.00 0.00 0.00 79 1010.9
20260508082647 65 86 2.0 2.0 0.00 0.00 0.00 78 1010.8
20260508082218 65 109 2.0 4.0 0.00 0.00 0.00 78 1010.8
20260508081737 64 97 1.0 4.0 0.00 0.00 0.00 77 1010.7
20260508081322 65 96 0.0 3.0 0.00 0.00 0.00 76 1010.8
20260508080847 66 122 0.0 4.0 0.00 0.00 0.00 75 1010.8
20260508080447 66 81 4.0 5.0 0.00 0.00 0.00 74 1010.7
20260508080002 66 90 0.0 3.0 0.00 0.00 0.00 74 1010.9
20260508075537 65 96 0.0 4.0 0.00 0.00 0.00 75 1010.6
20260508075122 66 57 2.0 3.0 0.00 0.00 0.00 76 1010.8
20260508074722 66 112 1.0 4.0 0.00 0.00 0.00 77 1010.6
20260508074242 65 53 2.0 5.0 0.00 0.00 0.00 78 1010.6
20260508073837 65 142 2.0 3.0 0.00 0.00 0.00 79 1010.6
20260508073412 65 81 1.0 3.0 0.00 0.00 0.00 80 1010.7
20260508072932 65 93 2.0 4.0 0.00 0.00 0.00 80 1010.3
20260508072457 64 48 1.0 5.0 0.00 0.00 0.00 82 1010.6
20260508072057 64 94 1.0 4.0 0.00 0.00 0.00 82 1010.6
20260508071648 64 85 0.0 2.0 0.00 0.00 0.00 81 1010.7
20260508071229 64 103 0.0 2.0 0.00 0.00 0.00 81 1010.9
20260508070822 64 117 0.0 3.0 0.00 0.00 0.00 80 1010.8
20260508070347 64 99 1.0 3.0 0.00 0.00 0.00 79 1011.0
20260508065847 65 90 2.0 3.0 0.00 0.00 0.00 77 1011.0
20260508065407 64 89 0.0 3.0 0.00 0.00 0.00 78 1010.9
20260508064907 65 92 2.0 3.0 0.00 0.00 0.00 78 1010.8
20260508064452 64 106 1.0 4.0 0.00 0.00 0.00 80 1010.8
20260508064022 63 77 2.0 3.0 0.00 0.00 0.00 81 1010.3
20260508063617 63 103 1.0 4.0 0.00 0.00 0.00 82 1010.1
20260508063148 63 124 2.0 3.0 0.00 0.00 0.00 81 1010.3
20260508062707 63 103 2.0 4.0 0.00 0.00 0.00 82 1010.2
20260508062227 63 119 3.0 4.0 0.00 0.00 0.00 81 1010.3
20260508061748 63 95 4.0 5.0 0.00 0.00 0.00 82 1010.2
20260508061323 62 77 1.0 3.0 0.00 0.00 0.00 82 1010.3
20260508060854 62 106 0.0 3.0 0.00 0.00 0.00 82 1010.3
20260508060442 62 87 2.0 4.0 0.00 0.00 0.00 83 1010.3
20260508060033 62 93 0.0 0.0 0.00 0.00 0.00 83 1010.1
20260508055602 62 123 1.0 2.0 0.00 0.00 0.00 83 1010.0
20260508055158 61 97 0.0 4.0 0.00 0.00 0.00 83 1010.2
20260508054718 61 100 3.0 4.0 0.00 0.00 0.00 83 1010.0
20260508054230 61 102 0.0 1.0 0.00 0.00 0.00 84 1010.1
20260508053807 61 118 2.0 4.0 0.00 0.00 0.00 84 1009.9
20260508053332 61 96 0.0 1.0 0.00 0.00 0.00 85 1009.8
20260508052918 60 101 0.0 2.0 0.00 0.00 0.00 85 1009.5
20260508052447 60 101 0.0 3.0 0.00 0.00 0.00 86 1009.5
20260508052012 60 94 0.0 1.0 0.00 0.00 0.00 86 1009.5
20260508051547 60 98 0.0 3.0 0.00 0.00 0.00 86 1009.3
20260508050652 60 93 0.0 3.0 0.00 0.00 0.00 87 1009.5
20260508050238 61 91 0.0 0.0 0.00 0.00 0.00 88 1009.3
20260508045737 61 81 2.0 3.0 0.00 0.00 0.00 88 1009.5
20260508045237 61 96 0.0 1.0 0.00 0.00 0.00 88 1009.6
20260508044827 61 81 2.0 4.0 0.00 0.00 0.00 88 1009.5
20260508044339 61 63 2.0 5.0 0.00 0.00 0.00 88 1009.5
20260508043903 61 88 2.0 4.0 0.00 0.00 0.00 88 1009.5
20260508043427 61 52 1.0 3.0 0.00 0.00 0.00 89 1009.3
20260508043008 61 88 1.0 4.0 0.00 0.00 0.00 89 1009.5
20260508042557 61 101 1.0 4.0 0.00 0.00 0.00 89 1009.5
20260508042142 61 59 2.0 4.0 0.00 0.00 0.00 89 1009.5
20260508041648 61 78 1.0 3.0 0.00 0.00 0.00 89 1009.4
20260508041152 61 87 1.0 4.0 0.00 0.00 0.00 89 1009.5
20260508040747 61 88 3.0 5.0 0.00 0.00 0.00 89 1009.7
20260508040330 61 67 0.0 3.0 0.00 0.00 0.00 89 1009.8
20260508035852 61 102 0.0 2.0 0.00 0.00 0.00 89 1009.8
20260508035422 61 97 1.0 4.0 0.00 0.00 0.00 89 1009.7
20260508035012 61 85 1.0 5.0 0.00 0.00 0.00 89 1009.8
20260508034516 61 90 2.0 3.0 0.00 0.00 0.00 89 1009.9
20260508034107 61 87 3.0 4.0 0.00 0.00 0.00 88 1009.8
20260508033637 62 114 3.0 4.0 0.00 0.00 0.00 88 1009.7
20260508033207 62 79 0.0 3.0 0.00 0.00 0.00 88 1009.6
20260508032757 62 95 0.0 3.0 0.00 0.00 0.00 88 1009.7
20260508032347 62 124 4.0 4.0 0.00 0.00 0.00 87 1009.9
20260508031936 61 110 0.0 2.0 0.00 0.00 0.00 86 1009.7
20260508031503 61 102 1.0 3.0 0.00 0.00 0.00 86 1009.7
20260508031058 61 107 0.0 0.0 0.00 0.00 0.00 86 1009.6
20260508030602 61 99 2.0 3.0 0.00 0.00 0.00 86 1009.6
20260508030147 61 74 0.0 1.0 0.00 0.00 0.00 87 1009.6
20260508025702 61 85 0.0 1.0 0.00 0.00 0.00 87 1009.4
20260508025222 61 120 1.0 2.0 0.00 0.00 0.00 87 1009.5
20260508024812 61 85 1.0 2.0 0.00 0.00 0.00 87 1009.6
20260508024323 61 112 1.0 4.0 0.00 0.00 0.00 87 1009.7
20260508023842 61 127 2.0 5.0 0.00 0.00 0.00 88 1009.6
20260508023433 61 99 0.0 2.0 0.00 0.00 0.00 88 1009.6
20260508022932 61 119 2.0 3.0 0.00 0.00 0.00 88 1009.6
20260508022523 61 128 4.0 5.0 0.00 0.00 0.00 88 1009.7
20260508022033 61 102 2.0 4.0 0.00 0.00 0.00 88 1009.7
20260508021543 61 140 4.0 4.0 0.00 0.00 0.00 88 1009.6
20260508021112 61 74 1.0 6.0 0.00 0.00 0.00 88 1009.7
20260508020702 61 97 2.0 4.0 0.00 0.00 0.00 88 1009.5
20260508020243 61 84 2.0 10.0 0.00 0.00 0.00 87 1009.9
20260508015843 61 140 4.0 8.0 0.00 0.00 0.00 87 1009.6
20260508015421 61 127 6.0 9.0 0.00 0.00 0.00 87 1009.6
20260508015003 62 113 0.0 6.0 0.00 0.00 0.00 87 1009.6
20260508014558 62 102 1.0 4.0 0.00 0.00 0.00 87 1009.4
20260508014153 62 98 1.0 2.0 0.00 0.00 0.00 87 1009.5
20260508013718 62 128 0.0 2.0 0.00 0.00 0.00 87 1009.6
20260508013252 61 78 2.0 6.0 0.00 0.00 0.00 87 1009.6
20260508012757 61 89 5.0 8.0 0.00 0.00 0.00 87 1009.5
20260508012333 61 102 2.0 5.0 0.00 0.00 0.00 87 1009.5
20260508011858 61 113 2.0 3.0 0.00 0.00 0.00 87 1009.5
20260508011458 61 94 0.0 1.0 0.00 0.00 0.00 87 1009.6
20260508011042 61 62 1.0 3.0 0.00 0.00 0.00 87 1009.8
20260508010638 61 76 1.0 2.0 0.00 0.00 0.00 87 1009.6
20260508010143 61 75 0.0 1.0 0.00 0.00 0.00 87 1009.8
20260508005704 61 104 0.0 1.0 0.00 0.00 0.00 87 1009.6
20260508005244 61 88 0.0 1.0 0.00 0.00 0.00 87 1009.7
20260508004744 62 91 1.0 2.0 0.00 0.00 0.00 86 1009.8
20260508004254 62 95 0.0 2.0 0.00 0.00 0.00 86 1009.7
20260508003804 62 351 2.0 2.0 0.00 0.00 0.00 86 1009.8
20260508003319 61 81 1.0 2.0 0.00 0.00 0.00 85 1010.0
20260508002834 61 69 1.0 2.0 0.00 0.00 0.00 85 1009.6
20260508002339 61 15 1.0 3.0 0.00 0.00 0.00 85 1010.0
20260508001924 61 89 1.0 3.0 0.00 0.00 0.00 85 1009.8
20260508001454 61 339 1.0 2.0 0.00 0.00 0.00 85 1009.7
20260508000959 61 357 4.0 5.0 0.00 0.00 0.00 85 1009.9
20260508000503 61 18 1.0 2.0 0.00 0.00 0.00 85 1009.9
20260508000019 61 49 1.0 2.0 0.00 0.00 0.00 85 1010.0
20260507235534 61 60 2.0 3.0 0.00 0.00 0.00 85 1010.2
20260507235039 61 95 2.0 6.0 0.00 0.00 0.00 86 1010.4
20260507234549 61 71 1.0 3.0 0.00 0.00 0.00 86 1010.0
20260507234110 61 85 2.0 6.0 0.00 0.00 0.00 86 1010.3
20260507233704 61 336 3.0 6.0 0.00 0.00 0.00 86 1010.1
20260507233244 62 308 2.0 3.0 0.00 0.00 0.00 86 1010.3
20260507232827 62 85 0.0 1.0 0.00 0.00 0.00 86 1010.3
20260507232350 62 82 0.0 2.0 0.00 0.00 0.00 86 1010.1
20260507231949 61 83 1.0 2.0 0.00 0.00 0.00 86 1010.2
20260507231519 62 35 1.0 2.0 0.00 0.00 0.00 86 1010.4
20260507231029 62 70 0.0 0.0 0.00 0.00 0.00 86 1010.2
20260507230619 62 97 0.0 0.0 0.00 0.00 0.00 86 1010.3
20260507230119 62 98 0.0 0.0 0.00 0.00 0.00 85 1010.6
20260507225654 62 94 0.0 0.0 0.00 0.00 0.00 85 1010.7
20260507225214 62 80 0.0 0.0 0.00 0.00 0.00 85 1010.4
20260507224810 62 101 0.0 0.0 0.00 0.00 0.00 85 1010.4
20260507224350 62 95 0.0 2.0 0.00 0.00 0.00 85 1010.4
20260507223929 62 104 0.0 2.0 0.00 0.00 0.00 85 1010.7
20260507223454 62 103 2.0 3.0 0.00 0.00 0.00 86 1010.6
20260507223009 62 119 0.0 2.0 0.00 0.00 0.00 86 1010.7
20260507222534 63 112 1.0 3.0 0.00 0.00 0.00 86 1010.7
20260507222104 63 106 0.0 1.0 0.00 0.00 0.00 87 1010.6
20260507221659 63 161 1.0 2.0 0.00 0.00 0.00 87 1010.6
20260507221304 63 129 2.0 3.0 0.00 0.00 0.00 87 1010.6
20260507220819 63 109 0.0 3.0 0.00 0.00 0.00 86 1010.8
20260507220344 63 136 4.0 5.0 0.00 0.00 0.00 86 1010.8
20260507215439 63 104 0.0 5.0 0.00 0.00 0.00 86 1010.8
20260507215001 63 97 0.0 4.0 0.00 0.00 0.00 86 1010.4
20260507214514 63 125 2.0 4.0 0.00 0.00 0.00 86 1010.4
20260507214104 63 110 2.0 4.0 0.00 0.00 0.00 85 1010.3
20260507213629 63 120 2.0 3.0 0.00 0.00 0.00 85 1010.1
20260507213201 63 103 2.0 3.0 0.00 0.00 0.00 84 1010.2
20260507212739 63 100 0.0 1.0 0.00 0.00 0.00 84 1010.3
20260507212239 63 107 0.0 4.0 0.00 0.00 0.00 83 1010.3
20260507211815 63 134 2.0 3.0 0.00 0.00 0.00 83 1010.1
20260507211404 63 97 0.0 3.0 0.00 0.00 0.00 82 1010.2
20260507210914 63 99 1.0 4.0 0.00 0.00 0.00 82 1009.9
20260507210414 63 110 0.0 2.0 0.00 0.00 0.00 80 1009.8
20260507205919 63 73 0.0 1.0 0.00 0.00 0.00 79 1009.8
20260507205459 63 88 0.0 1.0 0.00 0.00 0.00 79 1009.9
20260507205019 63 90 3.0 4.0 0.00 0.00 0.00 79 1009.9
20260507204601 62 95 0.0 3.0 0.00 0.00 0.00 81 1010.0
20260507204124 62 64 0.0 3.0 0.00 0.00 0.00 83 1009.8
20260507203640 63 95 0.0 1.0 0.00 0.00 0.00 84 1009.7
20260507203236 63 95 0.0 2.0 0.00 0.00 0.00 84 1009.5
20260507202834 63 94 0.0 1.0 0.00 0.00 0.00 84 1009.5
20260507202404 63 93 0.0 0.0 0.00 0.00 0.00 84 1009.7
20260507201904 63 98 0.0 1.0 0.00 0.00 0.00 84 1009.6
20260507201429 63 92 0.0 2.0 0.00 0.00 0.00 84 1009.7
20260507201019 63 93 0.0 1.0 0.00 0.00 0.00 84 1009.6
20260507200609 63 129 1.0 2.0 0.00 0.00 0.00 84 1009.6
20260507200119 63 127 1.0 3.0 0.00 0.00 0.00 84 1009.6
20260507195647 63 111 1.0 2.0 0.00 0.00 0.00 83 1009.4
20260507195214 63 114 1.0 3.0 0.00 0.00 0.00 84 1009.4
20260507194749 63 93 2.0 3.0 0.00 0.00 0.00 83 1009.3
20260507194309 63 81 2.0 2.0 0.00 0.00 0.00 82 1009.5
20260507193824 63 113 2.0 3.0 0.00 0.00 0.00 82 1009.5
20260507193359 63 118 3.0 4.0 0.00 0.00 0.00 81 1009.4
20260507192859 63 127 2.0 3.0 0.00 0.00 0.00 81 1009.2
20260507192439 63 62 1.0 2.0 0.00 0.00 0.00 81 1009.1
20260507191944 63 133 3.0 4.0 0.00 0.00 0.00 81 1009.1
20260507191513 63 67 2.0 3.0 0.00 0.00 0.00 81 1009.0
20260507191059 64 92 2.0 4.0 0.00 0.00 0.00 80 1009.2
20260507190619 64 95 0.0 3.0 0.00 0.00 0.00 80 1008.9
20260507190144 64 124 2.0 5.0 0.00 0.00 0.00 79 1008.9
20260507185649 64 116 2.0 4.0 0.00 0.00 0.00 78 1008.8
20260507185200 64 145 2.0 3.0 0.00 0.00 0.00 77 1008.8
20260507184739 64 126 4.0 6.0 0.00 0.00 0.00 77 1008.8
20260507184309 64 147 2.0 8.0 0.00 0.00 0.00 76 1008.9
20260507183904 64 111 1.0 8.0 0.00 0.00 0.00 75 1008.8
20260507183415 64 102 2.0 6.0 0.00 0.00 0.00 74 1009.0
20260507182929 65 167 2.0 4.0 0.00 0.00 0.00 72 1008.8
20260507182529 64 171 2.0 6.0 0.00 0.00 0.00 72 1008.6
20260507182119 64 152 5.0 8.0 0.00 0.00 0.00 71 1008.6
20260507181639 64 117 2.0 8.0 0.00 0.00 0.00 71 1008.7
20260507181159 64 111 3.0 6.0 0.00 0.00 0.00 72 1008.7
20260507180714 65 133 0.0 6.0 0.00 0.00 0.00 72 1008.7
20260507180259 64 111 5.0 10.0 0.00 0.00 0.00 72 1008.7
20260507175814 65 137 4.0 9.0 0.00 0.00 0.00 72 1008.5
20260507175349 65 127 3.0 8.0 0.00 0.00 0.00 72 1008.7
20260507174924 65 76 2.0 5.0 0.00 0.00 0.00 71 1008.5
20260507174514 65 175 4.0 6.0 0.00 0.00 0.00 72 1008.7
20260507174024 65 95 6.0 9.0 0.00 0.00 0.00 73 1008.2
20260507173529 65 154 4.0 9.0 0.00 0.00 0.00 72 1008.6
20260507173104 65 102 2.0 9.0 0.00 0.00 0.00 73 1008.5
20260507172649 64 160 5.0 10.0 0.00 0.00 0.00 75 1008.5
20260507172249 65 147 2.0 8.0 0.00 0.00 0.00 75 1008.5
20260507171804 65 160 4.0 9.0 0.00 0.00 0.00 76 1008.1
20260507171316 65 133 2.0 10.0 0.00 0.00 0.00 75 1008.1
20260507170839 66 75 2.0 8.0 0.00 0.00 0.00 74 1008.3
20260507170411 65 124 1.0 6.0 0.00 0.00 0.00 76 1008.2
20260507170009 64 140 3.0 8.0 0.00 0.00 0.00 75 1008.3
20260507165549 65 151 8.0 13.0 0.00 0.00 0.00 74 1008.2
20260507165134 65 119 2.0 8.0 0.00 0.00 0.00 73 1008.1
20260507164639 65 114 8.0 18.0 0.00 0.00 0.00 73 1008.2
20260507164219 65 154 10.0 12.0 0.00 0.00 0.00 72 1008.1
20260507163744 65 139 4.0 10.0 0.00 0.00 0.00 73 1008.1
20260507163249 65 160 6.0 9.0 0.00 0.00 0.00 73 1008.1
20260507162838 65 96 6.0 10.0 0.00 0.00 0.00 72 1008.0
20260507162424 65 156 6.0 9.0 0.00 0.00 0.00 72 1008.2
20260507162004 65 151 3.0 10.0 0.00 0.00 0.00 73 1008.1
20260507161514 66 139 1.0 6.0 0.00 0.00 0.00 70 1008.2
20260507161044 66 115 2.0 5.0 0.00 0.00 0.00 71 1008.2
20260507160544 65 132 5.0 10.0 0.00 0.00 0.00 71 1008.2
20260507160139 65 119 6.0 9.0 0.00 0.00 0.00 72 1008.2
20260507155705 65 157 4.0 10.0 0.00 0.00 0.00 71 1008.2
20260507155224 65 152 4.0 10.0 0.00 0.00 0.00 71 1008.5
20260507154803 65 114 7.0 10.0 0.00 0.00 0.00 70 1008.3
20260507154309 65 127 2.0 8.0 0.00 0.00 0.00 70 1008.5
20260507153839 66 107 6.0 9.0 0.00 0.00 0.00 69 1008.5
20260507153414 66 147 7.0 9.0 0.00 0.00 0.00 68 1008.5
20260507152954 65 105 2.0 10.0 0.00 0.00 0.00 69 1008.6
20260507152554 66 112 4.0 10.0 0.00 0.00 0.00 69 1008.6
20260507152139 66 122 2.0 6.0 0.00 0.00 0.00 67 1008.6
20260507151644 65 80 4.0 9.0 0.00 0.00 0.00 70 1008.7
20260507151244 65 100 5.0 10.0 0.00 0.00 0.00 71 1008.5
20260507150824 66 119 5.0 8.0 0.00 0.00 0.00 67 1008.6
20260507150409 66 111 6.0 6.0 0.00 0.00 0.00 67 1008.6
20260507145924 65 116 6.0 9.0 0.00 0.00 0.00 68 1008.7
20260507145451 64 139 5.0 9.0 0.00 0.00 0.00 71 1008.7
20260507145024 65 145 8.0 11.0 0.00 0.00 0.00 71 1008.6
20260507144554 65 107 6.0 8.0 0.00 0.00 0.00 71 1008.7
20260507144131 65 98 3.0 10.0 0.00 0.00 0.00 72 1008.8
20260507143654 65 131 5.0 9.0 0.00 0.00 0.00 73 1008.8
20260507143219 66 98 3.0 9.0 0.00 0.00 0.00 73 1009.0
20260507142729 66 121 5.0 6.0 0.00 0.00 0.00 72 1008.9
20260507142234 65 123 7.0 10.0 0.00 0.00 0.00 75 1009.0
20260507141754 65 153 5.0 9.0 0.00 0.00 0.00 75 1008.9
20260507141324 64 93 6.0 9.0 0.00 0.00 0.00 76 1009.0
20260507140909 65 145 7.0 11.0 0.00 0.00 0.00 74 1009.1
20260507140431 65 137 3.0 6.0 0.00 0.00 0.00 75 1009.1
20260507135939 66 128 5.0 10.0 0.00 0.00 0.00 74 1009.1
20260507135439 66 144 2.0 8.0 0.00 0.00 0.00 73 1009.3
20260507135033 66 130 4.0 6.0 0.00 0.00 0.00 73 1009.1
20260507134549 67 125 5.0 8.0 0.00 0.00 0.00 71 1009.4
20260507134054 66 63 6.0 10.0 0.00 0.00 0.00 73 1009.5
20260507133126 65 144 4.0 10.0 0.00 0.00 0.00 61 1009.5
20260507132704 64 138 7.0 10.0 0.00 0.00 0.00 62 1009.6
20260507132244 64 141 4.0 6.0 0.00 0.00 0.00 75 1009.7
20260507131824 65 136 5.0 9.0 0.00 0.00 0.00 75 1009.8
20260507131334 67 101 3.0 9.0 0.00 0.00 0.00 73 1009.5
20260507130909 68 63 4.0 6.0 0.00 0.00 0.00 66 1009.6
20260507130447 67 164 4.0 6.0 0.00 0.00 0.00 67 1009.7
20260507125949 66 164 4.0 11.0 0.00 0.00 0.00 70 1009.7
20260507125534 66 152 4.0 9.0 0.00 0.00 0.00 71 1009.5
20260507125109 66 112 3.0 10.0 0.00 0.00 0.00 72 1009.5
20260507124624 66 145 6.0 9.0 0.00 0.00 0.00 73 1009.8
20260507124149 66 153 3.0 6.0 0.00 0.00 0.00 73 1009.8
20260507123659 67 140 3.0 8.0 0.00 0.00 0.00 73 1009.8
20260507123204 67 215 3.0 10.0 0.00 0.00 0.00 73 1010.0
20260507122729 66 134 2.0 6.0 0.00 0.00 0.00 75 1010.1
20260507122324 65 155 7.0 15.0 0.00 0.00 0.00 76 1010.0
20260507121824 68 127 3.0 5.0 0.00 0.00 0.00 71 1010.0
20260507121408 67 140 2.0 5.0 0.00 0.00 0.00 72 1009.9
20260507120919 66 164 6.0 12.0 0.00 0.00 0.00 74 1009.9
20260507120454 65 172 6.0 14.0 0.00 0.00 0.00 74 1010.1
20260507120017 66 147 10.0 13.0 0.00 0.00 0.00 72 1010.0
20260507115524 66 116 3.0 11.0 0.00 0.00 0.00 72 1010.0
20260507115047 66 176 8.0 12.0 0.00 0.00 0.00 71 1010.0
20260507114619 66 152 5.0 12.0 0.00 0.00 0.00 73 1009.9
20260507114119 66 132 5.0 10.0 0.00 0.00 0.00 71 1009.8
20260507113619 66 151 12.0 15.0 0.00 0.00 0.00 72 1009.7
20260507113155 66 150 3.0 11.0 0.00 0.00 0.00 72 1009.9
20260507112704 66 126 5.0 14.0 0.00 0.00 0.00 72 1009.8
20260507112254 67 181 6.0 12.0 0.00 0.00 0.00 71 1009.7
20260507111809 67 169 4.0 10.0 0.00 0.00 0.00 72 1009.7